Погода Кокшетау

Погода Кокшетау : погода сейчас, прогноз погоды и архив. Всё, что Вы хотите узнать о погоде Кокшетау!

Хотите узнать прогноз погоды в Кокчетаве? Тогда Вам сюда: Погода в Кокчетаве

Поиск расширенной информации на нашем сайте:

Другие новости

Новости СМИ2

Главная страница сайта

Новости сайта

03.07.2017

Напоминаем, что на нашем специализированном сайте Метеоцентр.Азия вы можете получить высокодетализированные автоматические прогнозы погоды по пунктам России, СНГ и мира в авиационном формате (включающие направление и скорость ветра, видимость, явления погоды, количество и форму облачности, нижнюю и верхнюю границу облачности).


Погода Кокшетау - сегодня

Время (UTC), дата Ветер
(°,м/с) 
Видим.   Явления Облачность Т
(°С)
Тd
(°С)
f(%) Тe
(°С)
Pmin
(гПа)
dP
(гПа)
Po
(мм)
O2
(г/м3)
Тmin Tmax R s Состояние
почвы
00 17.04.18 тихо ()   н/о    3/0 средняя, верхняя 
[Ac lent|Ci fib]
-4.7 -7.4 81 -5  1017.3  1.1  741  305           
06 17.04.18 250 (З) 20000 м    3/1 600 м средняя 
[Cu hum|Ac lent]
+2.6 -14.4 27 +2  1018.5  0.8  743  298  -4.8         
09 17.04.18 270 (З) 20000 м    8/8 600 м 
[Cu hum]
+4.5 -14.7 23 +4  1017.9  -0.4  742  295           
12 17.04.18 330 (СЗ) 20000 м    8/8 600 м 
[Sc diur, vesp]
+4.4 -11 32 +2  1018.5  0.6  743  295           
15 17.04.18 010 (С) н/о    8/8 600 м 
[Sc diur, vesp]
-0.4 -8.3 55 -1  1019.6  0.6  743  301    +5.1       
18 17.04.18 350 (С) н/о    10/10 1000 м 
[Sc]
-2.1 -6.3 73 -2  1021.3  1.5  744  303    +5.1       
21 17.04.18 050 (СВ) н/о    ясно 
-5.5 -7.7 84 -5  1021.5  -0.2  744  307           
00 18.04.18 350 (С) н/о    4/0 верхняя 
[Ci fib]
-6.7 -8.3 88 -6  1021.7  0.1  744  308           
06 18.04.18 230 (ЮЗ) 20000 м    9/4 600 м верхняя 
[Cu hum|Ci fib]
+3.5 -10.6 35 +3  1021.4  -0.4  745  297  -6.8         
09 18.04.18 130 (ЮВ) 20000 м    10/4 600 м верхняя 
[Cu hum|Ci]
+5.1 -11.9 28 +5  1020.1  -1.1  744  295           
12 18.04.18 060 (СВ) 20000 м    9/4 600 м верхняя 
[Cu hum|Ci]
+5.6 -11.4 28 +4  1019.4  -0.6  743  295           
15 18.04.18 060 (СВ) н/о    8/0 средняя 
[Ac und]
+2.4 -10.4 38 1019.6  -0.1  743  298    +6.8       
18 18.04.18 120 (ЮВ) н/о    ясно 
-0.8 -8.5 56 -2  1020.9  0.9  744  302    +6.8       
21 18.04.18 070 (В) н/о    ясно 
-4.2 -9.2 68 -5  1021.3  744  305           
00 19.04.18 тихо ()   н/о    8/8 600 м 
[Sc]
-7.1 -8.8 88 -7  1021.8  0.2  744  309           
06 19.04.18 220 (ЮЗ) 20000 м    8/6 600 м средняя 
[Cu hum|Ac lent]
+3.9 -8.8 39 +3  1020.5  -0.6  744  296  -7.5         
09 19.04.18 260 (З) 20000 м    10/8 600 м кучево-дожд., средняя 
[Cb cap|Ac As]
+4.1 -5.7 49 +1  1019.7  -0.8  743  296           
12 19.04.18 230 (ЮЗ) 20000 м    6/6 1000 м 
[Sc diur, vesp]
+4.9 -5.7 46 +2  1018.6  -0.9  743  295           
15 19.04.18 190 (Ю) н/о    ясно 
+2.6 -5.1 57 1018.1  -0.8  742  297    +5.2       
18 19.04.18 200 (Ю) н/о    ясно 
+1 -5.3 63 -3  1016.5  -1.7  741  298    +5.2       
21 19.04.18 190 (Ю) н/о    ясно 
+0.9 -5.5 62 -2  1014.7  -1.7  740  298           
00 20.04.18 200 (Ю) н/о    10/10 600 м 
[Sc]
+2.6 -3.2 66 -1  1012.2  -2.3  738  295           
03 20.04.18 200 (Ю) 20000 м  слаб. ливневой дождь  10/10 600 м кучево-дожд. 
[Cb cap]
+3.9 -1 70 +1  1010.7  -1.3  737  293      0.1     
09 20.04.18 230 (ЮЗ) 20000 м    10/3 1000 м средняя 
[Sc|Ac As]
+9.8 +1.5 56 +7  1009.5  -0.8  737  286           
21 20.04.18 200 (Ю) н/о    10/0 средняя 
[Ac As]
+8 -0.3 56 +6  1005.5  -1.5  733  287           
Время (UTC), дата Ветер
(°,м/с) 
Видим.   Явления Облачность Т
(°С)
Тd
(°С)
f(%) Тe
(°С)
Pmin
(гПа)
dP
(гПа)
Po
(мм)
O2
(г/м3)
Тmin Tmax R s Состояние
почвы

Для получения пояснительной информации подведите курсор к названию столбца.

ПОГОДА Кокшетау - архив

Всё, что Вы хотите узнать о погоде Кокшетау - удобно и подробно!

Выберите нужную дату (начиная с 1 января 2015* года) и нажмите кнопку "Найти".
Будут отображены архивные сводки погоды по пункту Кокшетау, начиная с указанной даты.


Отображать данные в формате CSV (для использования в таблицах Excel)


Внимание! Наш архив погоды предназначен исключительно для личного некоммерческого использования в познавательных целях. Если Вам необходимы официальные справки о состоянии погоды (для производственных, юридических, коммерческих и т.п. целей), обращайтесь в органы Росгидромета.

*Примечание: данная дата относится к архиву по метеостанциям СССР (Россия, СНГ, Балтия).
Архив по метеостанциям Зарубежной Европы и Азии (кроме Китая) хранится 10 дней, по другим регионам земного шара (Китай, Африка, Америка, Австралия, Океания) - 1 день.

Кокшетау - район местоположения метеостанции


Название, широта, долгота, высота метеостанции:
Кокшетау 53.3°ш. 69.4°д. 229 м над ур. моря [Казахстан]

Дополнительная информация

В oтличие oт бoльшинства пoгoдных сайтoв мы публикуем пoдрoбную метеoинфoрмацию в детальнoм прoфессиoнальнoм фoрмате.

Характеристики температуры и влажнoсти вoздуха измеряются на высoте 2 м в тени вдали oт зданий и деревьев.
Скoрoсть ветра измеряется на высoте 10 м (на урoвне рoста челoвека скoрoсть ветра ниже в 1.5-2 раза). Если метеoстанция нахoдится в гoрoде или в лесу, тo скoрoсть ветра занижена на 2-4 м/с пo сравнению с oткрытым местoм. Скoрoсть ветра над акватoриями крупных рек и oзёр, а также на вершинах хoлмoв на 2-5 м/с выше, чем в oбычных услoвиях.
Атмoсфернoе давление в разных тoчках местнoсти мoжет значительнo oтличаться oт давления на метеoстанции, в зависимoсти oт услoвий рельефа (при пoдъёме на 10 м давление пoнижается примернo на 1 мм рт.ст.).